Change the Weather History Date:

Monday, October 14, 2013

  Actual Average (PASK) Record (PASK)
Temperature  
Mean Temperature 37 °F -  
Max Temperature 37 °F 24 °F 41 °F (2013)
Min Temperature 35 °F 16 °F 1 °F (1996)
Degree Days  
Heating Degree Days 28    
Moisture  
Dew Point 36 °F    
Average Humidity 98    
Maximum Humidity 100    
Minimum Humidity 93    
Precipitation  
Precipitation 0.00 in - - ()
Sea Level Pressure  
Sea Level Pressure 29.59 in    
Wind  
Wind Speed 4 mph (ESE)    
Max Wind Speed 7 mph    
Max Gust Speed -    
Visibility 9 miles    
Events Rain    
Averages and records for this station are not official NWS values.
T = Trace of Precipitation, MM = Missing Value Source: NWS Daily Summary

Daily Weather History Graph

Daily Weather History Graph

Search for Another Location

Airport or City:

Trip Planner

Search our weather history database for the weather conditions in past years. The results will help you decide how hot, cold, wet, or windy it might be!

Date:

Astronomy

Oct. 14, 2013 Rise Set
Actual Time 9:39 AM AKDT 7:13 PM AKDT
Civil Twilight 8:45 AM AKDT 8:08 PM AKDT
Nautical Twilight 7:43 AM AKDT 9:09 PM AKDT
Astronomical Twilight 6:39 AM AKDT 10:12 PM AKDT
Moon 6:18 PM AKDT (10/14) 3:23 AM AKDT (10/14)
Length of Visible Light 11h 23m
Length of Day
9h 34m
Waxing Gibbous, 80% of the Moon is Illuminated
Oct 14
Waxing Gibbous
Oct 18
Full
Oct 26
Last Quarter
Nov 3
New
Nov 9
First Quarter

Hourly Weather History & Observations

Time (AKDT) Temp. Windchill Dew Point Humidity Pressure Visibility Wind Dir Wind Speed Gust Speed Precip Events Conditions
12:01 AM 36.0 °F 31.1 °F 35.1 °F 97% 29.54 in 10.0 mi East 5.8 mph - 0.00 in Rain Light Rain
1:01 AM 36.0 °F 31.1 °F 35.1 °F 97% 29.55 in 10.0 mi East 5.8 mph - 0.00 in Rain Light Rain
2:01 AM 35.1 °F 30.1 °F 35.1 °F 100% 29.55 in 10.0 mi East 5.8 mph - 0.00 in Rain Light Rain
2:29 AM 35.6 °F 31.7 °F 35.6 °F 100% 29.43 in 10.0 mi East 4.6 mph - 0.00 in Rain Light Rain
2:58 AM 35.6 °F 31.7 °F 35.6 °F 100% 29.44 in 10.0 mi ESE 4.6 mph - 0.00 in   Overcast
3:01 AM 35.1 °F 30.1 °F 35.1 °F 100% 29.56 in 10.0 mi ESE 5.8 mph - 0.00 in   Overcast
3:47 AM 35.6 °F 31.7 °F 35.6 °F 100% 29.44 in 10.0 mi East 4.6 mph - N/A   Overcast
4:01 AM 35.6 °F 31.7 °F 35.6 °F 100% 29.44 in 10.0 mi East 4.6 mph - N/A   Overcast
4:20 AM 35.6 °F 31.7 °F 35.6 °F 100% 29.45 in 10.0 mi East 4.6 mph - N/A   Overcast
4:29 AM 35.6 °F 31.7 °F 35.6 °F 100% 29.45 in 10.0 mi East 4.6 mph - N/A   Overcast
5:01 AM 35.1 °F - 35.1 °F 100% 29.58 in 10.0 mi Calm Calm - N/A   Overcast
5:20 AM 35.6 °F 29.9 °F 35.6 °F 100% 29.45 in 10.0 mi East 6.9 mph - N/A   Overcast
6:01 AM 35.1 °F 29.3 °F 35.1 °F 100% 29.59 in 10.0 mi East 6.9 mph - N/A   Overcast
6:36 AM 35.6 °F 31.7 °F 35.6 °F 100% 29.47 in 10.0 mi East 4.6 mph - 0.00 in   Overcast
7:01 AM 35.1 °F 32.2 °F 35.1 °F 100% 29.60 in 10.0 mi East 3.5 mph - 0.00 in Rain Light Rain
7:31 AM 35.6 °F 30.7 °F 35.6 °F 100% 29.47 in 10.0 mi East 5.8 mph - 0.00 in   Scattered Clouds
8:01 AM 35.6 °F 31.7 °F 35.6 °F 100% 29.48 in 10.0 mi East 4.6 mph - 0.00 in   Overcast
8:15 AM 35.6 °F - 35.6 °F 100% 29.48 in 10.0 mi Calm Calm - 0.00 in   Overcast
8:32 AM 35.6 °F - 35.6 °F 100% 29.48 in 10.0 mi Calm Calm - 0.00 in   Overcast
8:43 AM 35.6 °F - 35.6 °F 100% 29.48 in 10.0 mi Calm Calm - 0.00 in   Overcast
8:56 AM 35.6 °F 32.8 °F 35.6 °F 100% 29.48 in 10.0 mi East 3.5 mph - 0.00 in   Overcast
9:01 AM 35.1 °F 31.0 °F 35.1 °F 100% 29.61 in 10.0 mi East 4.6 mph - 0.00 in   Overcast
10:01 AM 35.1 °F 31.0 °F 35.1 °F 100% 29.63 in 4.0 mi East 4.6 mph - 0.00 in   Overcast
11:01 AM 36.0 °F 33.3 °F 36.0 °F 100% 29.65 in 4.0 mi ESE 3.5 mph - 0.00 in   Overcast
11:16 AM 35.6 °F 31.7 °F 35.6 °F 100% 29.52 in 2.5 mi East 4.6 mph - 0.00 in Rain Light Rain
11:23 AM 35.6 °F 31.7 °F 35.6 °F 100% 29.53 in 3.0 mi East 4.6 mph - 0.00 in Rain Light Rain
11:54 AM 35.6 °F 32.8 °F 35.6 °F 100% 29.53 in 8.0 mi East 3.5 mph - 0.00 in Rain Light Rain
12:01 PM 36.0 °F 32.1 °F 36.0 °F 100% 29.66 in 9.0 mi East 4.6 mph - 0.00 in   Overcast
1:01 PM 37.0 °F 34.5 °F 37.0 °F 100% 29.68 in 10.0 mi East 3.5 mph - 0.00 in   Overcast
2:01 PM 37.9 °F - 37.9 °F 100% 29.70 in 10.0 mi Calm Calm - 0.00 in   Overcast
2:58 PM 39.2 °F - 39.2 °F 100% 29.58 in 5.0 mi Calm Calm - 0.00 in Rain Light Rain
3:01 PM 39.0 °F - 39.0 °F 100% 29.71 in 7.0 mi Calm Calm - 0.00 in Rain Light Rain
3:17 PM 39.2 °F 37.0 °F 39.2 °F 100% 29.59 in 10.0 mi South 3.5 mph - 0.00 in   Overcast
4:01 PM 39.9 °F 35.8 °F 37.9 °F 93% 29.73 in 10.0 mi SSE 5.8 mph - 0.00 in Rain Light Rain
4:16 PM 39.2 °F 35.9 °F 37.4 °F 93% 29.60 in 10.0 mi South 4.6 mph - 0.00 in Rain Light Rain
5:01 PM 39.9 °F 37.8 °F 37.9 °F 93% 29.73 in 10.0 mi SSE 3.5 mph - 0.00 in Rain Light Rain
6:01 PM 39.0 °F 35.7 °F 37.9 °F 96% 29.73 in 10.0 mi SSE 4.6 mph - 0.00 in   Overcast
7:01 PM 37.4 °F 32.8 °F 37.4 °F 100% 29.62 in 10.0 mi SSE 5.8 mph - N/A   Overcast
7:22 PM 37.4 °F 33.8 °F 35.6 °F 93% 29.63 in 10.0 mi South 4.6 mph - N/A   Overcast
7:43 PM 37.4 °F 34.9 °F 35.6 °F 93% 29.63 in 10.0 mi Variable 3.5 mph - N/A   Overcast
8:01 PM 37.9 °F - 36.0 °F 93% 29.77 in 10.0 mi Calm Calm - N/A   Overcast
8:12 PM 37.4 °F 33.8 °F 35.6 °F 93% 29.64 in 10.0 mi SSE 4.6 mph - N/A   Overcast
8:34 PM 37.4 °F 34.9 °F 35.6 °F 93% 29.65 in 10.0 mi SE 3.5 mph - N/A   Overcast
8:49 PM 37.4 °F 33.8 °F 35.6 °F 93% 29.65 in 10.0 mi SSE 4.6 mph - N/A   Overcast
9:01 PM 37.0 °F 33.3 °F 35.1 °F 93% 29.78 in 10.0 mi SSE 4.6 mph - N/A   Overcast
10:01 PM 37.0 °F 33.3 °F 35.1 °F 93% 29.79 in 10.0 mi SE 4.6 mph - N/A   Overcast
11:01 PM 37.0 °F - 36.0 °F 96% 29.81 in 10.0 mi Calm Calm - N/A   Overcast